Location: Unspecified
(49.2170°N, 0.0000°E)
Time: 13:53:29
(UTC+00:00)

Vanguard 3 - Pass Details

Date: 22 January 2021
Orbit: 508 x 3261 km, 33.3° (Epoch: 28 February)

Event Time Altitude Azimuth Distance (km) Brightness Sun altitude
Rises 10:58:16 0° 267° (W) 5,999 11.4 19.3°
Reaches altitude 10° 11:04:35 10° 247° (WSW) 5,480 11.5 19.6°
Maximum altitude 11:12:38 15° 219° (SW) 5,468 12.0 20.0°
Drops below altitude 10° 11:21:38 10° 191° (S) 6,170 13.1 20.3°
Sets 11:29:51 0° 172° (S) 7,181 13.6 20.6°
